Location: *
(45.1961°N, 1.9694°E)
Time: 00:15:47
(UTC+00:00)

CZ-2C R/B - Pass Details

Date: 25 August 2019
Orbit: 785 x 870 km, 98.3° (Epoch: 21 September)

Event Time Altitude Azimuth Distance (km) Brightness Sun altitude
Rises 19:35:24 0° 30° (NNE) 3,333 5.8 -9.5°
Reaches altitude 10° 19:38:40 10° 51° (NE) 2,412 4.8 -10.0°
Maximum altitude 19:41:56 16° 89° (E) 2,015 4.1 -10.5°
Enters shadow 19:43:45 14° 113° (ESE) 2,155 4.1 -10.8°
